Regional Weather Roundup
Issued by NWS

Home | Current Version | Previous Version | Text Only | Print | Product List | Glossary On
Versions: 1 2 3 4 5 6 7 8 9 10 11 12 13 14 15 16 17 18 19 20 21 22 23 24 25 26 27 28 29 30 31 32 33 34 35 36 37 38 39 40 41 42 43 44 45 46 47 48 49 50
288
ASUS43 KTOP 301959
RWRKS

WEATHER ROUNDUP FOR KANSAS
NATIONAL WEATHER SERVICE GOODLAND KS
300 PM CDT SUN APR 30 2017

NOTE:  "FAIR" INDICATES FEW OR NO CLOUDS BELOW 12,000 FEET WITH NO
SIGNIFICANT WEATHER AND/OR OBSTRUCTIONS TO VISIBILITY.

KSZ001>006-013>018-027>032-041>047-302100-
NORTHWEST KANSAS

CITY           SKY/WX    TMP DP  RH WIND       PRES   REMARKS
GOODLAND       MIX PCPN  32  30  92 MISG      29.74F FOG
HAYS           CLOUDY    38  36  92 N31G37    29.55R FOG     WCI  25
HILL CITY      LGT SNOW  35  34  96 N30G38    29.64R FOG     WCI  22
RUSSELL        LGT RAIN  41  38  89 N24G35    29.51S FOG
$$

KSZ061>065-074>080-084>089-302100-
SOUTHWEST KANSAS

CITY           SKY/WX    TMP DP  RH WIND       PRES   REMARKS
DODGE CITY     LGT SNOW  34  33  96 N30G43    29.58R FOG     WCI  20
ELKHART          N/A    N/A N/A N/A MISG        N/A
GREAT BEND     RAIN      40  38  93 N26G35    29.50R WCI  29
LIBERAL        LGT SNOW  34  32  92 NW36G45   29.70R VSB 1   WCI  19
$$

KSZ066>073-081>083-090>101-302100-
SOUTHEAST KANSAS

CITY           SKY/WX    TMP DP  RH WIND       PRES   REMARKS
CHANUTE        CLOUDY    51  40  65 S20G26    29.51S
COFFEYVILLE    RAIN      47  42  83 S18G37    29.54R
HUTCHINSON     CLOUDY    47  42  83 S12       29.44R
MEDICINE LODGE   N/A    N/A N/A N/A N24G30    29.42R
NEWTON         CLOUDY    46  42  86 S16       29.45R
PARSONS        PTSUNNY   53  39  59 S21G32    29.52F
WICHITA INTL   CLOUDY    44  40  85 S6        29.45R
WICHITA JABRA  CLOUDY    45  42  89 S13       29.45S
WICHITA MCCONL CLOUDY    45  41  87 SW7       29.45S
WINFIELD       CLOUDY    48  39  71 S14G21    29.47S
$$

KSZ007>012-019>026-033>040-048>060-102>105-302100-
NORTHEAST KANSAS

CITY           SKY/WX    TMP DP  RH WIND       PRES   REMARKS
CONCORDIA      CLOUDY    44  43  96 N18G24    29.48F
EMPORIA        CLOUDY    48  44  86 S22G32    29.46F
LAWRENCE       CLOUDY    56  47  71 S18G25    29.47F
MANHATTAN      RAIN      52  49  89 VRB7      29.44R FOG
OLATHE IND     PTSUNNY   57  47  69 S15G23    29.48F
OLATHE EXE     CLOUDY    56  47  71 S17G26    29.48F
SALINA         CLOUDY    50  46  86 N17       29.44S
TOPEKA BILLARD CLOUDY    57  47  69 SE17      29.45S
TOPEKA FORBES  CLOUDY    57  46  66 S15       29.45S
$$




USA.gov is the U.S. government's official web portal to all federal, state and local government web resources and services.